Location: Newark
(22.3060°N, 114.2134°E)
Time: 04:03:03
(UTC+00:00)

Vanguard 2 - Pass Details

Date: 11 August 2021
Orbit: 552 x 2937 km, 32.9° (Epoch: 21 September)

Event Time Altitude Azimuth Distance (km) Brightness Sun altitude
Rises 12:30:24 0° 203° (SSW) 6,288 12.1 -20.8°
Reaches altitude 10° 12:37:10 10° 186° (S) 4,829 11.4 -22.2°
Enters shadow 12:42:20 16° 164° (SSE) 3,929 10.7 -23.2°
Maximum altitude 12:44:21 17° 152° (SSE) 3,698 - -23.6°
Drops below altitude 10° 12:50:01 10° 116° (ESE) 3,664 - -24.8°
Sets 12:53:58 0° 96° (E) 4,220 - -25.5°
